Midland Airpark, TX
on Friday, December 7, 2018

Friday
Previous Day Next Day
Daily Summary
 ActualAverage (KMAF)Record (KMAF)
Temperature
Mean Temperature - -  
Max Temperature 41 °F 57 °F 79 °F (1966)
Min Temperature 36 °F 31 °F 13 °F (2005)
Degree Days
Heating Degree Days 26    
Moisture
Dew Point 35 °F   
Average Humidity 89    
Maximum Humidity 97    
Minimum Humidity 72    
Precipitation
Precipitation 0.18 in - - ()
Wind
Wind Speed 9 mph   
Max Wind Speed 12 mph   
Max Gust Speed -   
Visibility 6 miles   
Events Rain   
Averages and records for this station are not official NWS values.
Key: T is trace of precipitation, MM is missing value
Source: NWS Daily Summary
Seasonal Weather Averages





Time(CST)TemperatureDew PointHumidity Pressure Visibility Wind DirectionWind SpeedGust SpeedPrecipitationEvents Conditions
12:15 AM 41.0 °F 32.7 °F 72% 30.29 in 10.0 miles NE 9.2 mph - N/A   Unknown
12:35 AM 40.5 °F 32.4 °F 73% 30.29 in 10.0 miles NE 10.4 mph - N/A   Unknown
12:55 AM 40.5 °F 32.4 °F 73% 30.28 in 10.0 miles NE 9.2 mph - N/A   Unknown
1:15 AM 40.1 °F 32.4 °F 74% 30.29 in 10.0 miles NNE 8.1 mph - N/A   Unknown
1:35 AM 40.3 °F 32.5 °F 74% 30.29 in 10.0 miles ENE 8.1 mph - N/A   Unknown
1:55 AM 40.1 °F 32.4 °F 74% 30.28 in 10.0 miles NNE 9.2 mph - N/A   Unknown
2:15 AM 39.7 °F 32.4 °F 75% 30.30 in 10.0 miles NE 9.2 mph - N/A   Unknown
2:35 AM 39.9 °F 32.4 °F 74% 30.31 in 10.0 miles NE 8.1 mph - N/A   Light Drizzle
2:55 AM 39.6 °F 32.4 °F 75% 30.29 in 10.0 miles NNE 9.2 mph - N/A   Drizzle
3:15 AM 38.7 °F 32.4 °F 78% 30.29 in 10.0 miles NE 9.2 mph - N/A   Light Drizzle
3:35 AM 38.5 °F 32.9 °F 80% 30.29 in 10.0 miles NE 9.2 mph - N/A   Light Drizzle
3:55 AM 38.5 °F 32.9 °F 80% 30.28 in 10.0 miles NNE 10.4 mph - N/A   Unknown
4:15 AM 38.3 °F 32.2 °F 79% 30.27 in 10.0 miles NNE 10.4 mph - N/A   Unknown
4:35 AM 38.3 °F 32.4 °F 79% 30.27 in 10.0 miles NE 10.4 mph - N/A   Unknown
4:55 AM 37.9 °F 32.5 °F 81% 30.28 in 10.0 miles NE 9.2 mph - N/A   Unknown
5:15 AM 38.1 °F 32.9 °F 81% 30.29 in 10.0 miles NE 6.9 mph - N/A   Unknown
5:35 AM 37.8 °F 32.5 °F 81% 30.28 in 10.0 miles ENE 8.1 mph - N/A   Light Drizzle
5:55 AM 37.6 °F 32.5 °F 82% 30.28 in 3.0 miles NE 6.9 mph - N/A Rain Light Rain
6:15 AM 37.0 °F 32.7 °F 84% 30.27 in 5.0 miles East 8.1 mph - 0.01 in Rain Light Rain
6:35 AM 36.9 °F 32.9 °F 86% 30.29 in 5.0 miles NNE 5.8 mph - 0.02 in Rain Rain
6:55 AM 36.5 °F 32.9 °F 87% 30.29 in 4.0 miles ENE 5.8 mph - 0.02 in Rain Light Rain
7:15 AM 36.5 °F 32.9 °F 87% 30.28 in 5.0 miles ENE 8.1 mph - 0.01 in Rain Light Rain
7:35 AM 36.5 °F 32.9 °F 87% 30.28 in 7.0 miles NE 8.1 mph - 0.01 in   Drizzle
7:55 AM 36.5 °F 33.3 °F 88% 30.29 in 7.0 miles NNE 3.5 mph - 0.01 in   Light Drizzle
8:15 AM 36.9 °F 33.8 °F 89% 30.29 in 7.0 miles NNE 5.8 mph - N/A Rain Rain
8:35 AM 36.9 °F 34.0 °F 89% 30.32 in 7.0 miles North 4.6 mph - N/A   Light Drizzle
8:55 AM 37.0 °F 34.3 °F 90% 30.33 in 7.0 miles North 5.8 mph - N/A   Unknown
9:15 AM 37.4 °F 34.7 °F 90% 30.33 in 7.0 miles North 6.9 mph - N/A   Unknown
9:35 AM 37.4 °F 34.7 °F 90% 30.33 in 7.0 miles North 5.8 mph - N/A   Unknown
9:55 AM 37.6 °F 34.9 °F 90% 30.33 in 7.0 miles NE 6.9 mph - N/A   Unknown
10:15 AM 37.8 °F 35.1 °F 90% 30.32 in 7.0 miles NE 9.2 mph - N/A   Unknown
10:35 AM 38.3 °F 35.4 °F 89% 30.30 in 7.0 miles NE 9.2 mph - N/A   Unknown
10:55 AM 38.3 °F 35.6 °F 90% 30.30 in 7.0 miles NNE 11.5 mph - N/A   Unknown
11:15 AM 38.1 °F 35.2 °F 89% 30.29 in 10.0 miles NNE 10.4 mph - N/A   Unknown
11:35 AM 38.3 °F 35.4 °F 89% 30.29 in 7.0 miles NNE 10.4 mph - N/A   Unknown
11:55 AM 37.9 °F 35.2 °F 90% 30.28 in 5.0 miles NE 11.5 mph - N/A   Mist
12:15 PM 38.3 °F 35.6 °F 90% 30.26 in 4.0 miles NE 10.4 mph - N/A   Mist
12:35 PM 38.3 °F 36.0 °F 91% 30.26 in 4.0 miles NE 10.4 mph - N/A   Mist
12:55 PM 38.3 °F 36.0 °F 91% 30.25 in 5.0 miles NNE 9.2 mph - N/A   Mist
1:15 PM 38.3 °F 36.0 °F 91% 30.25 in 4.0 miles NE 9.2 mph - N/A   Mist
1:35 PM 38.3 °F 36.0 °F 91% 30.25 in 2.5 miles NNE 6.9 mph - N/A   Mist
1:55 PM 38.3 °F 36.1 °F 92% 30.23 in 2.0 miles NE 11.5 mph - N/A   Mist
2:15 PM 38.3 °F 36.1 °F 92% 30.22 in 1.8 miles NE 10.4 mph - N/A   Mist
2:35 PM 38.3 °F 36.5 °F 93% 30.22 in 1.5 miles NNE 9.2 mph - N/A   Mist
2:55 PM 37.9 °F 36.1 °F 93% 30.23 in 1.8 miles NNE 8.1 mph - N/A   Mist
3:15 PM 37.8 °F 36.1 °F 94% 30.22 in 1.8 miles NE 10.4 mph - N/A   Mist
3:35 PM 37.8 °F 36.1 °F 94% 30.21 in 1.8 miles NE 10.4 mph - N/A   Mist
3:55 PM 37.6 °F 36.1 °F 95% 30.22 in 1.5 miles NE 6.9 mph - N/A   Mist
4:15 PM 37.8 °F 36.5 °F 95% 30.24 in 1.5 miles NNE 6.9 mph - N/A   Mist
4:35 PM 37.9 °F 36.5 °F 95% 30.25 in 1.5 miles NNE 8.1 mph - N/A   Mist
4:55 PM 37.9 °F 36.7 °F 95% 30.24 in 2.0 miles NE 9.2 mph - N/A   Mist
5:15 PM 37.9 °F 36.5 °F 95% 30.23 in 2.5 miles ENE 11.5 mph - N/A   Mist
5:35 PM 37.8 °F 36.5 °F 95% 30.22 in 3.0 miles NE 11.5 mph - N/A   Mist
5:55 PM 37.8 °F 36.5 °F 95% 30.22 in 4.0 miles ENE 10.4 mph - N/A   Mist
6:15 PM 37.8 °F 36.5 °F 95% 30.24 in 7.0 miles ENE 9.2 mph - N/A   Unknown
6:35 PM 37.8 °F 36.5 °F 95% 30.24 in 10.0 miles ENE 9.2 mph - N/A   Unknown
7:15 PM 37.6 °F 36.1 °F 95% 30.22 in 2.0 miles ENE 9.2 mph - N/A   Mist
7:35 PM 37.6 °F 36.5 °F 96% 30.26 in 2.5 miles NE 10.4 mph - N/A   Mist
7:55 PM 37.4 °F 36.1 °F 95% 30.26 in 3.0 miles NE 9.2 mph - N/A   Mist
8:15 PM 37.4 °F 36.0 °F 95% 30.25 in 2.0 miles NNE 11.5 mph - N/A Rain Light Rain
8:35 PM 36.9 °F 35.8 °F 96% 30.24 in 3.0 miles NNE 9.2 mph - 0.02 in Rain Light Rain
8:55 PM 36.9 °F 35.8 °F 96% 30.25 in 4.0 miles North 9.2 mph - 0.02 in Rain Rain
9:15 PM 36.9 °F 35.8 °F 96% 30.25 in 2.5 miles NE 9.2 mph - 0.02 in Rain Light Rain
9:35 PM 36.7 °F 35.8 °F 97% 30.25 in 4.0 miles NE 11.5 mph - 0.04 in Rain Light Rain
9:55 PM 36.9 °F 36.0 °F 97% 30.26 in 7.0 miles NNE 6.9 mph - 0.05 in Rain Light Rain
10:15 PM 36.7 °F 35.8 °F 97% 30.26 in 10.0 miles NNE 9.2 mph - 0.01 in Rain Rain
10:35 PM 36.9 °F 36.0 °F 97% 30.25 in 10.0 miles NE 8.1 mph - 0.01 in   Light Drizzle
10:55 PM 36.9 °F 36.0 °F 97% 30.27 in 4.0 miles North 6.9 mph - 0.01 in Rain Light Rain
11:15 PM 36.7 °F 35.6 °F 96% 30.26 in 2.0 miles NNE 6.9 mph - 0.03 in Rain Rain
11:35 PM 36.5 °F 35.6 °F 97% 30.26 in 2.5 miles NNE 9.2 mph - 0.05 in Rain Rain
11:55 PM 36.7 °F 35.8 °F 97% 30.24 in 4.0 miles NNE 9.2 mph - 0.07 in Rain Rain
 Powered By Weather Underground